Nantucket, MA

12:36 AM EDT on March 29, 2017 (GMT -0400)
Nantucket Memorial

Weather History for KACK - November, 2013

Change the Weather History Date:

Tuesday, November 5, 2013

  Actual Average Record
Temperature  
Mean Temperature 44 °F -  
Max Temperature 50 °F 55 °F 70 °F (1975)
Min Temperature 37 °F 42 °F 27 °F (1965)
Degree Days  
Heating Degree Days 22    
Moisture  
Dew Point 32 °F    
Average Humidity 65    
Maximum Humidity 83    
Minimum Humidity 50    
Precipitation  
Precipitation 0.00 in - - ()
Sea Level Pressure  
Sea Level Pressure 30.63 in    
Wind  
Wind Speed 4 mph (NNE)    
Max Wind Speed 7 mph    
Max Gust Speed -    
Visibility 10 miles    
Events      
Averages and records for this station are not official NWS values.
T = Trace of Precipitation, MM = Missing Value Source: NWS Daily Summary

Daily Weather History Graph

Daily Weather History Graph

Search for Another Location

Airport or City:

Trip Planner

Search our weather history database for the weather conditions in past years. The results will help you decide how hot, cold, wet, or windy it might be!

Date:

Astronomy

Nov. 05, 2013 Rise Set
Actual Time 6:16 AM EST 4:30 PM EST
Civil Twilight 5:47 AM EST 4:59 PM EST
Nautical Twilight 5:14 AM EST 5:32 PM EST
Astronomical Twilight 4:42 AM EST 6:04 PM EST
Moon 8:28 AM EST (11/5) 6:27 PM EST (11/5)
Length of Visible Light 11h 11m
Length of Day
10h 14m
Waxing Crescent, 6% of the Moon is Illuminated
Nov 5
Waxing Crescent
Nov 10
First Quarter
Nov 17
Full
Nov 25
Last Quarter
Dec 2
New

Hourly Weather History & Observations

Time (EST) Temp. Windchill Dew Point Humidity Pressure Visibility Wind Dir Wind Speed Gust Speed Precip Events Conditions
12:53 AM 41.0 °F 37.1 °F 28.9 °F 62% 30.67 in 10.0 mi North 5.8 mph - N/A   Overcast
1:53 AM 41.0 °F 37.1 °F 28.9 °F 62% 30.66 in 10.0 mi NNE 5.8 mph - N/A   Overcast
2:53 AM 42.1 °F 40.2 °F 30.0 °F 62% 30.66 in 10.0 mi ENE 3.5 mph - N/A   Overcast
3:53 AM 42.1 °F - 28.9 °F 60% 30.67 in 10.0 mi Calm Calm - N/A   Overcast
4:53 AM 41.0 °F 39.0 °F 30.9 °F 67% 30.66 in 10.0 mi NNE 3.5 mph - N/A   Overcast
5:53 AM 41.0 °F 39.0 °F 30.9 °F 67% 30.66 in 10.0 mi NNE 3.5 mph - N/A   Overcast
6:53 AM 41.0 °F 38.0 °F 32.0 °F 70% 30.68 in 10.0 mi NNE 4.6 mph - N/A   Overcast
7:53 AM 45.0 °F - 30.0 °F 56% 30.68 in 10.0 mi Calm Calm - N/A   Overcast
8:53 AM 46.9 °F - 30.0 °F 52% 30.68 in 10.0 mi NE 6.9 mph - N/A   Mostly Cloudy
9:53 AM 48.0 °F - 30.9 °F 52% 30.68 in 10.0 mi Variable 4.6 mph - N/A   Mostly Cloudy
10:53 AM 48.0 °F - 32.0 °F 54% 30.67 in 10.0 mi NNW 5.8 mph - N/A   Overcast
11:53 AM 48.0 °F - 30.9 °F 52% 30.65 in 10.0 mi NNW 6.9 mph - N/A   Mostly Cloudy
12:53 PM 48.9 °F - 30.9 °F 50% 30.63 in 10.0 mi Calm Calm - N/A   Overcast
1:53 PM 50.0 °F - 33.1 °F 52% 30.62 in 10.0 mi Calm Calm - N/A   Scattered Clouds
2:53 PM 48.0 °F - 32.0 °F 54% 30.61 in 10.0 mi South 3.5 mph - N/A   Clear
3:53 PM 46.9 °F - 33.1 °F 59% 30.60 in 10.0 mi SSE 3.5 mph - N/A   Clear
4:53 PM 43.0 °F 39.5 °F 32.0 °F 65% 30.59 in 10.0 mi NNE 5.8 mph - N/A   Overcast
5:53 PM 41.0 °F 38.0 °F 33.1 °F 73% 30.59 in 10.0 mi NE 4.6 mph - N/A   Mostly Cloudy
6:53 PM 37.9 °F 34.4 °F 32.0 °F 79% 30.58 in 10.0 mi ENE 4.6 mph - N/A   Clear
7:53 PM 37.9 °F 35.5 °F 32.0 °F 79% 30.58 in 10.0 mi NE 3.5 mph - N/A   Clear
8:53 PM 37.9 °F - 33.1 °F 83% 30.56 in 10.0 mi Calm Calm - N/A   Clear
9:53 PM 37.9 °F - 33.1 °F 83% 30.57 in 10.0 mi Calm Calm - N/A   Clear
10:53 PM 39.9 °F 36.7 °F 35.1 °F 83% 30.54 in 10.0 mi North 4.6 mph - N/A   Clear
11:53 PM 41.0 °F 39.0 °F 36.0 °F 82% 30.55 in 10.0 mi North 3.5 mph - N/A   Clear